Regional Weather Roundup
Issued by NWS

Home | Current Version | Previous Version | Graphics & Text | Print | Product List | Glossary On
Versions: 1 2 3 4 5 6 7 8 9 10 11 12 13 14 15 16 17 18 19 20 21 22 23 24 25 26 27 28 29 30 31 32 33 34 35 36 37 38 39 40 41 42 43 44 45 46 47 48 49 50
428
ASUS44 KMEG 270610
RWRTN
TENNESSEE HOURLY STATE WEATHER ROUNDUP
NATIONAL WEATHER SERVICE MEMPHIS TN
100 AM CDT WED JUL 27 2016

TNZ002-004-019-021-049-052-054-088>092-270700-
WEST TENNESSEE

CITY           SKY/WX    TMP DP  RH WIND       PRES   REMARKS
MEMPHIS INTL   PTCLDY    84  72  67 E6        29.95S
NWS MEMPHIS      N/A     78 N/A N/A MISG        N/A
JACKSON        PTCLDY    74  74 100 CALM      29.96F
DYERSBURG      PTCLDY    75  72  88 MISG      29.97R
UNION CITY     PTCLDY    75  73  94 CALM      29.96F
PARIS          PTCLDY    73  72  94 CALM      29.99S
LEXINGTON      CLEAR     73  72  94 E3        29.97F
$$

TNZ008-025-027-028-033-062-065-066-270700-
NORTH MIDDLE TENNESSEE

CITY           SKY/WX    TMP DP  RH WIND       PRES   REMARKS
NASHVILLE      CLOUDY    76  73  91 CALM      29.99F
CLARKSVILLE    PTCLDY    76  73  91 CALM      29.98F
SMYRNA         CLOUDY    78  73  84 S5        29.99F
COOKEVILLE     PTCLDY    75  75 100 CALM      30.01F
CROSSVILLE     CLEAR     73  70  90 CALM      30.07F
$$

TNZ061-075-076-078-094-096-097-270700-
SOUTH MIDDLE TENNESSEE

CITY           SKY/WX    TMP DP  RH WIND       PRES   REMARKS
FAYETTEVILLE   CLEAR     77  72  83 CALM      30.02S
TULLAHOMA      CLEAR     73  72  94 S3        30.04S
WINCHESTER     CLEAR     75  73  94 CALM      30.03S
MCMINNVILLE    CLEAR     75  75 100 CALM      30.02F
COLUMBIA       PTCLDY   N/A N/A N/A CALM      29.99S
SHELBYVILLE    CLEAR     75  75 100 CALM      30.01F
$$

TNZ017-018-042-046-047-270700-
NORTHEAST TENNESSEE

CITY           SKY/WX    TMP DP  RH WIND       PRES   REMARKS
TRI CITIES     PTCLDY    73  70  90 CALM      30.06F
ELIZABETHTON   CLEAR     73  70  88 E3        30.06F
$$

TNZ012-013-036-069-073-074-270700-
CENTRAL EAST TENNESSEE

CITY           SKY/WX    TMP DP  RH WIND       PRES   REMARKS
KNOXVILLE      PTCLDY    78  73  84 NW8       30.01F
OAK RIDGE      CLOUDY    81  71  71 S3        30.02F
GATLINBURG     PTCLDY    75  70  83 CALM      30.01F
MORRISTOWN     CLOUDY    79  73  83 CALM      30.03F
$$

TNZ083-085-099-270700-
SOUTHEAST TENNESSEE

CITY           SKY/WX    TMP DP  RH WIND       PRES   REMARKS
CHATTANOOGA    PTCLDY    80  72  76 CALM      30.02S
$$

SKY/WX REPORTED AS FAIR MEANS FEW OR NO CLOUDS BELOW
12 THOUSAND FEET.





USA.gov is the U.S. government's official web portal to all federal, state and local government web resources and services.